User: anonymous   Login
Location: Cran-Gévrier
(45.9039°N, 6.1012°E)
Time: 13:30:44
(UTC+00:00)
Language:

CZ-4 DEB - Orbit

View from above orbital plane
View from above orbital plane
View from above satellite
View from above satellite

Ground track
Ground track

The orbit data is extracted from the following two-line orbital elements,

1 27676U 99057MQ  24052.31069017  .00001303  00000-0  41696-3 0  9994
2 27676  98.7644  88.7855 0103022 253.4321 105.5531 14.38413143104790
Epoch (UTC): 21 February 2024 07:27:23
Eccentricity: 0.0103022
inclination: 98.7644°
perigee height: 690 km
apogee height: 837 km
right ascension of ascending node: 88.7855°
argument of perigee: 253.4321°
revolutions per day: 14.38413143
mean anomaly at epoch: 105.5531°
orbit number at epoch: 10479

The dashed part of the orbit path shows where the satellite is in the earth's shadow,  

DLR